This demonstration page uses our WeatherBlox Daily Observations layout. Learn more.

Left ArrowRight Arrow

39.51506, -84.39828

Hourly Observations for February 2, 2020

Temp ( °F °C ) Dew Point ( °F °C ) Humidity (%) Winds ( mph kmh ) Pressure ( in mb ) Visibility ( mi km ) Precip ( " mm )
12:15 am 00:15 Cloudy 37 2.6 29 -1.4 75 75 WSW 14 22 29.91 1013 10 16.0934 0 0
12:35 am 00:35 Cloudy 37 2.6 30 -0.9 78 78 WSW 9 15 29.92 1013 10 16.0934 0 0
12:55 am 00:55 Cloudy 37 2.6 31 -0.7 79 79 WSW 5 7 29.91 1013 10 16.0934 0 0
1:15 am 01:15 Cloudy 36 2.4 30 -1.2 77 77 SW 9 15 29.9 1012 10 16.0934 0 0
1:35 am 01:35 Cloudy 36 2.3 30 -1.3 77 77 WSW 8 13 29.9 1012 10 16.0934 0 0
1:55 am 01:55 Cloudy 36 2.1 30 -1.2 79 79 SSW 6 9 29.89 1012 10 16.0934 0 0
2:15 am 02:15 Cloudy 36 2.1 30 -1 80 80 SSW 7 11 29.88 1012 10 16.0934 0 0
2:35 am 02:35 Cloudy 36 2 31 -0.8 82 82 SSW 7 11 29.88 1012 10 16.0934 0 0
2:55 am 02:55 Cloudy 36 2.1 31 -0.7 82 82 SSW 9 15 29.88 1012 10 16.0934 0 0
3:15 am 03:15 Cloudy 36 2.1 31 -0.6 83 83 SSW 9 15 29.87 1011 10 16.0934 0 0
3:35 am 03:35 Cloudy 36 2.2 31 -0.6 82 82 SSW 7 11 29.86 1011 10 16.0934 0 0
3:55 am 03:55 Cloudy 36 2.2 31 -0.5 83 83 SSW 10 17 29.85 1011 10 16.0934 0 0
4:15 am 04:15 Cloudy 36 2.1 31 -0.8 81 81 SSW 12 19 29.83 1010 10 16.0934 0 0
4:35 am 04:35 Cloudy 36 2.1 31 -0.8 81 81 SSW 14 22 29.81 1009 10 16.0934 0 0
4:55 am 04:55 Cloudy 36 2.1 31 -0.8 81 81 SSW 13 20 29.8 1009 10 16.0934 0 0
5:15 am 05:15 Cloudy 36 2 31 -0.7 83 83 SSW 14 22 29.79 1009 10 16.0934 0 0
5:35 am 05:35 Cloudy 35 1.8 31 -0.8 83 83 SSW 13 20 29.78 1008 10 16.0934 0 0
5:55 am 05:55 Partly Cloudy 35 1.5 31 -0.8 85 85 SSW 12 19 29.77 1008 10 16.0934 0 0
6:15 am 06:15 Partly Cloudy 35 1.4 31 -0.8 85 85 SSW 14 22 29.76 1008 10 16.0934 0 0
6:35 am 06:35 Partly Cloudy 35 1.5 31 -0.6 86 86 SSW 14 22 29.74 1007 10 16.0934 0 0
6:55 am 06:55 Clear 35 1.7 31 -0.6 85 85 SSW 12 19 29.74 1007 10 16.0934 0 0
7:15 am 07:15 Clear 34 1.1 30 -1 86 86 S 6 9 29.74 1007 10 16.0934 0 0
7:35 am 07:35 Clear 35 1.9 31 -0.4 85 85 SSW 12 19 29.72 1006 10 16.0934 0 0
7:55 am 07:55 Sunny 37 2.7 31 -0.4 80 80 SSW 14 22 29.7 1006 10 16.0934 0 0
8:15 am 08:15 Sunny 37 2.8 31 -0.4 80 80 SSW 16 26 29.7 1006 10 16.0934 0 0
8:35 am 08:35 Sunny 38 3.1 31 -0.5 77 77 SW 17 28 29.7 1006 10 16.0934 0 0
8:55 am 08:55 Sunny 38 3.1 31 -0.6 77 77 SW 20 31 29.7 1006 10 16.0934 0 0
9:15 am 09:15 Sunny 39 4.1 31 -0.3 73 73 SSW 16 26 29.67 1005 10 16.0934 0 0
9:35 am 09:35 Sunny 41 4.8 32 -0.1 71 71 SSW 22 35 29.66 1004 10 16.0934 0 0
9:55 am 09:55 Sunny 42 5.5 32 -0.1 68 68 SSW 21 33 29.66 1004 10 16.0934 0 0
10:15 am 10:15 Sunny 44 6.5 32 0.2 64 64 SW 17 28 29.66 1004 10 16.0934 0 0
10:35 am 10:35 Sunny 45 7.4 33 0.8 63 63 SSW 16 26 29.67 1005 10 16.0934 0 0
10:55 am 10:55 Sunny 49 9.2 34 0.9 56 56 SW 17 28 29.65 1004 10 16.0934 0 0
11:15 am 11:15 Sunny 51 10.3 34 1 53 53 WSW 24 39 29.66 1004 10 16.0934 0 0
11:35 am 11:35 Sunny 52 10.9 34 1.2 51 51 WSW 20 31 29.66 1004 10 16.0934 0 0
11:55 am 11:55 Sunny 52 11.3 35 1.4 51 51 SW 22 35 29.65 1004 10 16.0934 0 0
12:15 pm 12:15 Sunny 53 11.7 35 1.4 50 50 WSW 23 37 29.63 1004 10 16.0934 0 0
12:35 pm 12:35 Sunny 54 12.4 35 1.6 48 48 SW 23 37 29.63 1003 10 16.0934 0 0
12:55 pm 12:55 Sunny 55 13 35 1.5 46 46 WSW 25 41 29.62 1003 10 16.0934 0 0
1:15 pm 13:15 Sunny 57 13.8 35 1.8 44 44 WSW 22 35 29.61 1003 10 16.0934 0 0
1:35 pm 13:35 Sunny 58 14.5 35 1.8 42 42 SW 21 33 29.61 1003 10 16.0934 0 0
1:55 pm 13:55 Sunny 59 15.1 36 2.2 42 42 WSW 17 28 29.61 1003 10 16.0934 0 0
2:15 pm 14:15 Sunny 60 15.7 36 2.1 40 40 WSW 17 28 29.59 1002 10 16.0934 0 0
2:35 pm 14:35 Sunny 61 16.3 36 2.4 39 39 SW 20 31 29.59 1002 10 16.0934 0 0
2:55 pm 14:55 Sunny 62 16.7 35 1.9 37 37 WSW 16 26 29.59 1002 10 16.0934 0 0
3:15 pm 15:15 Sunny 63 17.2 36 2.3 37 37 WSW 16 26 29.6 1002 10 16.0934 0 0
3:35 pm 15:35 Sunny 64 17.5 36 2 36 36 WSW 20 31 29.6 1002 10 16.0934 0 0
3:55 pm 15:55 Sunny 64 18 35 1.9 34 34 WSW 14 22 29.61 1003 10 16.0934 0 0
4:15 pm 16:15 Sunny 65 18.3 35 1.5 33 33 WSW 15 24 29.61 1003 10 16.0934 0 0
4:35 pm 16:35 Sunny 65 18.3 34 1.3 32 32 WSW 17 28 29.62 1003 10 16.0934 0 0
4:55 pm 16:55 Sunny 64 17.9 34 1.3 33 33 WSW 20 31 29.63 1003 10 16.0934 0 0
5:15 pm 17:15 Sunny 63 17 35 1.6 36 36 WSW 10 17 29.64 1004 10 16.0934 0 0
5:35 pm 17:35 Sunny 61 16.2 35 1.8 38 38 WSW 10 17 29.65 1004 10 16.0934 0 0
5:55 pm 17:55 Sunny 59 14.8 36 2 42 42 WSW 12 19 29.68 1005 10 16.0934 0 0
6:15 pm 18:15 Clear 57 14 36 2 44 44 WSW 10 17 29.69 1005 10 16.0934 0 0
6:35 pm 18:35 Clear 56 13.3 36 2.1 47 47 SW 9 15 29.71 1006 10 16.0934 0 0
6:55 pm 18:55 Clear 56 13.1 36 2.3 48 48 SW 13 20 29.71 1006 10 16.0934 0 0
7:15 pm 19:15 Clear 55 12.6 36 2.4 50 50 WSW 13 20 29.72 1007 10 16.0934 0 0
7:35 pm 19:35 Clear 55 12.6 37 2.5 50 50 SW 12 19 29.73 1007 10 16.0934 0 0
7:55 pm 19:55 Clear 52 11.2 36 2.3 55 55 SW 12 19 29.75 1007 10 16.0934 0 0
8:15 pm 20:15 Clear 53 11.8 37 2.6 54 54 WSW 12 19 29.75 1008 10 16.0934 0 0
8:35 pm 20:35 Clear 54 12 37 2.8 54 54 WSW 12 19 29.76 1008 10 16.0934 0 0
8:55 pm 20:55 Clear 53 11.4 37 2.9 56 56 WSW 10 17 29.78 1008 10 16.0934 0 0
9:15 pm 21:15 Clear 52 11.3 37 2.9 57 57 SW 10 17 29.78 1008 10 16.0934 0 0
9:35 pm 21:35 Clear 52 11.2 37 3 57 57 WSW 12 19 29.79 1009 10 16.0934 0 0
9:55 pm 21:55 Clear 51 10.8 38 3.1 59 59 SW 10 17 29.8 1009 10 16.0934 0 0
10:15 pm 22:15 Clear 51 10.3 38 3.2 62 62 SW 12 19 29.8 1009 10 16.0934 0 0
10:35 pm 22:35 Clear 50 9.8 38 3.2 64 64 SW 8 13 29.81 1009 10 16.0934 0 0
10:55 pm 22:55 Clear 48 8.7 38 3.1 68 68 SW 10 17 29.82 1010 10 16.0934 0 0
11:15 pm 23:15 Clear 47 8.4 38 3.2 70 70 SSW 9 15 29.82 1010 10 16.0934 0 0
11:35 pm 23:35 Clear 47 8.3 38 3.2 71 71 SSW 10 17 29.82 1010 10 16.0934 0 0
11:55 pm 23:55 Clear 45 7.2 37 2.8 74 74 SW 10 17 29.84 1010 10 16.0934 0 0

Powered by AerisWeather